Weather History for KAKO - November, 2014

Change the Weather History Date:

Tuesday, November 18, 2014

  Actual Average Record
Temperature  
Mean Temperature 32 °F 36 °F  
Max Temperature 51 °F 48 °F 76 °F (2008)
Min Temperature 13 °F 24 °F 1 °F (1955)
Degree Days  
Heating Degree Days 33    
Month to date heating degree days 591  
Cooling Degree Days 0    
Month to date cooling degree days 0  
Moisture  
Dew Point 9 °F    
Average Humidity 41    
Maximum Humidity 64    
Minimum Humidity 18    
Precipitation  
Precipitation 0.00 in 0.02 in 0.34 in (1956)
Month to date precipitation 0.21 0.36  
Year to date precipitation 17.97 16.12  
Sea Level Pressure  
Sea Level Pressure 30.13 in    
Wind  
Wind Speed 11 mph (West)    
Max Wind Speed 21 mph    
Max Gust Speed 28 mph    
Visibility 10 miles    
Events      
T = Trace of Precipitation, MM = Missing Value Source: NWS Daily Summary

Daily Weather History Graph

Daily Weather History Graph

Search for Another Location

Airport or City:

Trip Planner

Search our weather history database for the weather conditions in past years. The results will help you decide how hot, cold, wet, or windy it might be!

Date:

Astronomy

Nov. 18, 2014 Rise Set
Actual Time 6:41 AM MST 4:33 PM MST
Civil Twilight 6:12 AM MST 5:03 PM MST
Nautical Twilight 5:39 AM MST 5:36 PM MST
Astronomical Twilight 5:07 AM MST 6:08 PM MST
Moon 2:41 AM MST (11/18) 2:30 PM MST (11/18)
Length of Visible Light 10h 50m
Length of Day
9h 51m
Waning Crescent, 14% of the Moon is Illuminated
Nov 18
Waning Crescent
Nov 22
New
Nov 29
First Quarter
Dec 6
Full
Dec 14
Last Quarter

Hourly Weather History & Observations

Time (MST) Temp. Windchill Dew Point Humidity Pressure Visibility Wind Dir Wind Speed Gust Speed Precip Events Conditions
12:53 AM 14.0 °F 3.9 °F 3.9 °F 64% 30.27 in 10.0 mi SW 6.9 mph - N/A   Clear
1:53 AM 17.1 °F 4.3 °F 5.0 °F 59% 30.23 in 10.0 mi SSW 11.5 mph - N/A   Clear
2:53 AM 15.1 °F 2.5 °F 3.9 °F 61% 30.23 in 10.0 mi SSW 10.4 mph - N/A   Clear
3:53 AM 17.1 °F 5.8 °F 5.0 °F 59% 30.22 in 10.0 mi SSW 9.2 mph - N/A   Clear
4:53 AM 19.0 °F 6.1 °F 6.1 °F 57% 30.25 in 10.0 mi WSW 12.7 mph - N/A   Clear
5:53 AM 19.0 °F 5.6 °F 6.1 °F 57% 30.25 in 10.0 mi WSW 13.8 mph - N/A   Clear
6:53 AM 19.9 °F 7.3 °F 6.1 °F 55% 30.25 in 10.0 mi SW 12.7 mph - N/A   Clear
7:53 AM 27.0 °F 15.6 °F 9.0 °F 47% 30.20 in 10.0 mi SW 13.8 mph - N/A   Clear
8:53 AM 35.1 °F 25.5 °F 9.0 °F 34% 30.18 in 10.0 mi WSW 15.0 mph - N/A   Clear
9:53 AM 39.9 °F 31.4 °F 10.0 °F 29% 30.15 in 10.0 mi West 16.1 mph - N/A   Clear
10:53 AM 46.9 °F - 10.0 °F 22% 30.11 in 10.0 mi West 15.0 mph - N/A   Clear
11:53 AM 48.0 °F - 8.1 °F 20% 30.08 in 10.0 mi West 20.7 mph 24.2 mph N/A   Clear
12:53 PM 48.9 °F - 10.0 °F 21% 30.05 in 10.0 mi West 12.7 mph - N/A   Partly Cloudy
1:53 PM 48.9 °F - 7.0 °F 18% 30.04 in 10.0 mi WNW 16.1 mph 23.0 mph N/A   Partly Cloudy
2:53 PM 48.9 °F - 9.0 °F 20% 30.03 in 10.0 mi West 13.8 mph - N/A   Clear
3:53 PM 48.9 °F - 9.0 °F 20% 30.02 in 10.0 mi West 6.9 mph - N/A   Clear
4:53 PM 39.0 °F 33.4 °F 10.0 °F 30% 30.06 in 10.0 mi West 8.1 mph - N/A   Clear
5:53 PM 34.0 °F 26.6 °F 10.9 °F 38% 30.11 in 10.0 mi NNW 9.2 mph - N/A   Partly Cloudy
6:53 PM 35.1 °F 26.9 °F 14.0 °F 42% 30.12 in 10.0 mi NW 11.5 mph - N/A   Clear
7:53 PM 35.1 °F 26.9 °F 16.0 °F 46% 30.10 in 10.0 mi NNW 11.5 mph - N/A   Clear
8:53 PM 37.0 °F 28.1 °F 15.1 °F 41% 30.07 in 10.0 mi NNW 15.0 mph - N/A   Clear
9:53 PM 36.0 °F 28.0 °F 14.0 °F 41% 30.06 in 10.0 mi NNW 11.5 mph - N/A   Scattered Clouds
10:53 PM 34.0 °F 26.0 °F 15.1 °F 46% 30.04 in 10.0 mi North 10.4 mph - N/A   Clear
11:53 PM 33.1 °F 26.1 °F 15.1 °F 48% 30.05 in 10.0 mi WNW 8.1 mph - N/A   Mostly Cloudy